LYX52A LPPR-LEPA

Flight info

Callsign LYX52A
Flight time 1h 30m
Altitude 32000
Route PESUL DCT RIVRO DCT BARDI M191 DIPOL/N0445F340 M871 NVS/N0448F350 DCT NANDO DCT MINGU DCT ABOSI DCT MABUX DCT RETBA DCT MOPIR DCT LASPO/N0416F260 M871 GODOX
Aircraft A321/M-SDE3FGHIRWY/LB1

Departure

Time 2026-05-05 18:03
Airport Francisco de Sá Carneiro Airport (LPPR)

Arrival

Time 2026-05-05 19:33
Airport Palma de Mallorca Airport (LEPA)
Time Latitude Longitude Altitude Speed Heading
2026-05-05 17:26 41.23810 -8.68515 207 ft 0 kts 258°
2026-05-05 17:52 41.23810 -8.68516 208 ft 0 kts 258°
2026-05-05 17:53 41.23812 -8.68505 208 ft 2 kts 258°
2026-05-05 17:53 41.23814 -8.68487 208 ft 2 kts 258°
2026-05-05 17:53 41.23817 -8.68466 208 ft 2 kts 258°
2026-05-05 17:53 41.23821 -8.68447 208 ft 2 kts 258°
2026-05-05 17:54 41.23824 -8.68428 208 ft 2 kts 258°
2026-05-05 17:54 41.23825 -8.68415 208 ft 2 kts 257°
2026-05-05 17:54 41.23834 -8.68400 208 ft 2 kts 200°
2026-05-05 17:54 41.23844 -8.68398 208 ft 1 kts 169°
2026-05-05 17:55 41.23851 -8.68400 208 ft 0 kts 168°
2026-05-05 17:57 41.23847 -8.68399 208 ft 1 kts 169°
2026-05-05 17:57 41.23833 -8.68396 208 ft 2 kts 170°
2026-05-05 17:57 41.23801 -8.68388 208 ft 6 kts 169°
2026-05-05 17:58 41.23741 -8.68367 208 ft 11 kts 149°
2026-05-05 17:58 41.23715 -8.68261 210 ft 14 kts 87°
2026-05-05 17:58 41.23715 -8.68120 211 ft 16 kts 111°
2026-05-05 17:58 41.23609 -8.68056 213 ft 18 kts 169°
2026-05-05 17:59 41.23475 -8.68021 214 ft 20 kts 166°
2026-05-05 17:59 41.23397 -8.67968 215 ft 0 kts 137°
2026-05-05 18:00 41.23391 -8.67961 216 ft 2 kts 134°
2026-05-05 18:00 41.23383 -8.67948 216 ft 0 kts 127°
2026-05-05 18:00 41.23381 -8.67945 216 ft 1 kts 127°
2026-05-05 18:01 41.23364 -8.67913 216 ft 8 kts 125°
2026-05-05 18:01 41.23317 -8.67820 219 ft 15 kts 109°
2026-05-05 18:01 41.23375 -8.67755 221 ft 12 kts
2026-05-05 18:01 41.23402 -8.67759 221 ft 0 kts 348°
2026-05-05 18:02 41.23403 -8.67759 221 ft 0 kts 348°
2026-05-05 18:02 41.23502 -8.67787 219 ft 48 kts 347°
2026-05-05 18:02 41.24166 -8.67961 206 ft 141 kts 347°
2026-05-05 18:02 41.25281 -8.68270 693 ft 172 kts 346°
2026-05-05 18:03 41.26397 -8.68580 1550 ft 161 kts 347°
2026-05-05 18:03 41.27467 -8.68868 2248 ft 162 kts 347°
2026-05-05 18:03 41.28629 -8.69183 2717 ft 178 kts 347°
2026-05-05 18:03 41.29899 -8.69526 3180 ft 194 kts 347°
2026-05-05 18:04 41.31292 -8.69901 3635 ft 212 kts 347°
2026-05-05 18:04 41.32811 -8.70311 4003 ft 236 kts 347°
2026-05-05 18:04 41.34492 -8.70764 4583 ft 251 kts 348°
2026-05-05 18:04 41.36215 -8.71227 5406 ft 255 kts 348°
2026-05-05 18:05 41.37948 -8.71693 6278 ft 257 kts 348°
2026-05-05 18:05 41.39739 -8.71948 7104 ft 262 kts
2026-05-05 18:05 41.41444 -8.71116 7911 ft 270 kts 31°
2026-05-05 18:05 41.42755 -8.69289 8714 ft 279 kts 56°
2026-05-05 18:06 41.43390 -8.66815 9505 ft 288 kts 75°
2026-05-05 18:06 41.43632 -8.65071 10034 ft 290 kts 76°
2026-05-05 18:06 41.43724 -8.61400 10749 ft 312 kts 99°
2026-05-05 18:06 41.42788 -8.58673 11081 ft 335 kts 125°
2026-05-05 18:07 41.41011 -8.56579 11398 ft 353 kts 146°
2026-05-05 18:07 41.38885 -8.54816 11760 ft 368 kts 147°
2026-05-05 18:07 41.36659 -8.52977 12347 ft 375 kts 147°
2026-05-05 18:07 41.34446 -8.51123 13034 ft 378 kts 147°
2026-05-05 18:08 41.32233 -8.49244 13690 ft 382 kts 147°
2026-05-05 18:08 41.29973 -8.47309 14331 ft 386 kts 146°
2026-05-05 18:08 41.27687 -8.45343 14891 ft 392 kts 146°
2026-05-05 18:08 41.25382 -8.43357 15436 ft 397 kts 147°
2026-05-05 18:09 41.23052 -8.41350 15991 ft 402 kts 147°
2026-05-05 18:09 41.20696 -8.39323 16550 ft 407 kts 147°
2026-05-05 18:09 41.18306 -8.37269 17092 ft 412 kts 147°
2026-05-05 18:09 41.15913 -8.35213 17596 ft 417 kts 147°
2026-05-05 18:10 41.13458 -8.33106 18082 ft 422 kts 148°
2026-05-05 18:10 41.10978 -8.30980 18557 ft 427 kts 148°
2026-05-05 18:10 41.08442 -8.28808 19080 ft 431 kts 148°
2026-05-05 18:10 41.05921 -8.26653 19581 ft 434 kts 148°
2026-05-05 18:11 41.03356 -8.24462 20086 ft 438 kts 149°
2026-05-05 18:11 41.00785 -8.22266 20596 ft 441 kts 149°
2026-05-05 18:11 40.98177 -8.20039 21100 ft 444 kts 149°
2026-05-05 18:11 40.95579 -8.17826 21581 ft 447 kts 149°
2026-05-05 18:12 40.92939 -8.15579 22050 ft 450 kts 149°
2026-05-05 18:12 40.90320 -8.13202 22490 ft 455 kts 142°
2026-05-05 18:12 40.88239 -8.10039 22883 ft 460 kts 121°
2026-05-05 18:12 40.87000 -8.06168 23329 ft 459 kts 103°
2026-05-05 18:13 40.86252 -8.02007 23786 ft 461 kts 100°
2026-05-05 18:13 40.85573 -7.97869 24167 ft 465 kts 100°
2026-05-05 18:13 40.84881 -7.93697 24575 ft 468 kts 100°
2026-05-05 18:13 40.84157 -7.89477 24999 ft 471 kts 101°
2026-05-05 18:14 40.83407 -7.85225 25395 ft 474 kts 101°
2026-05-05 18:14 40.82645 -7.80973 25793 ft 477 kts 102°
2026-05-05 18:14 40.81879 -7.76757 26170 ft 480 kts 102°
2026-05-05 18:14 40.81090 -7.72433 26537 ft 483 kts 102°
2026-05-05 18:15 40.80291 -7.68078 26900 ft 486 kts 102°
2026-05-05 18:15 40.79495 -7.63751 27269 ft 489 kts 102°
2026-05-05 18:15 40.78688 -7.59370 27790 ft 487 kts 102°
2026-05-05 18:15 40.77879 -7.54987 28016 ft 487 kts 102°
2026-05-05 18:16 40.77072 -7.50631 28010 ft 486 kts 102°
2026-05-05 18:16 40.75457 -7.41939 28006 ft 487 kts 102°
2026-05-05 18:17 40.73835 -7.33244 28005 ft 487 kts 103°
2026-05-05 18:17 40.73024 -7.28911 28000 ft 487 kts 103°
2026-05-05 18:17 40.72200 -7.24523 28006 ft 489 kts 103°
2026-05-05 18:17 40.71381 -7.20167 28288 ft 492 kts 103°
2026-05-05 18:18 40.70554 -7.15764 28860 ft 489 kts 103°
2026-05-05 18:18 40.69732 -7.11405 29422 ft 486 kts 103°
2026-05-05 18:18 40.68919 -7.07110 29916 ft 485 kts 104°
2026-05-05 18:18 40.68098 -7.02785 30367 ft 484 kts 103°
2026-05-05 18:19 40.67276 -6.98456 30728 ft 486 kts 104°
2026-05-05 18:19 40.66441 -6.94074 31068 ft 487 kts 104°
2026-05-05 18:19 40.65614 -6.89737 31386 ft 489 kts 104°
2026-05-05 18:19 40.64791 -6.85435 31713 ft 490 kts 104°
2026-05-05 18:20 40.63943 -6.81016 31973 ft 492 kts 104°
2026-05-05 18:20 40.62351 -6.72198 31990 ft 493 kts 100°
2026-05-05 18:21 40.61381 -6.63249 31990 ft 493 kts 96°
2026-05-05 18:21 40.60580 -6.54262 31992 ft 494 kts 95°
2026-05-05 18:22 40.59755 -6.45254 31991 ft 494 kts 96°
2026-05-05 18:22 40.58904 -6.36204 31990 ft 494 kts 96°
2026-05-05 18:23 40.58046 -6.27199 31994 ft 495 kts 96°
2026-05-05 18:23 40.57180 -6.18223 31990 ft 496 kts 96°
2026-05-05 18:24 40.56349 -6.09644 31994 ft 496 kts 96°
2026-05-05 18:24 40.55469 -6.00617 31994 ft 497 kts 96°
2026-05-05 18:25 40.54575 -5.91538 31990 ft 497 kts 96°
2026-05-05 18:25 40.53683 -5.82533 31990 ft 497 kts 97°
2026-05-05 18:26 40.52787 -5.73621 31982 ft 498 kts 97°
2026-05-05 18:26 40.51891 -5.64757 31987 ft 498 kts 97°
2026-05-05 18:27 40.50967 -5.55691 31980 ft 499 kts 97°
2026-05-05 18:27 40.50038 -5.46645 31975 ft 499 kts 97°
2026-05-05 18:28 40.48630 -5.33051 31968 ft 499 kts 97°
2026-05-05 18:28 40.47681 -5.23953 31974 ft 500 kts 98°
2026-05-05 18:29 40.46725 -5.14905 31969 ft 500 kts 98°
2026-05-05 18:29 40.45757 -5.05797 31964 ft 500 kts 98°
2026-05-05 18:30 40.44784 -4.96696 31966 ft 501 kts 98°
2026-05-05 18:30 40.43803 -4.87584 31974 ft 501 kts 98°
2026-05-05 18:31 40.42820 -4.78521 31977 ft 502 kts 98°
2026-05-05 18:31 40.41819 -4.69397 31966 ft 503 kts 98°
2026-05-05 18:32 40.40819 -4.60326 31975 ft 502 kts 98°
2026-05-05 18:32 40.39815 -4.51261 31961 ft 502 kts 98°
2026-05-05 18:33 40.38795 -4.42120 31968 ft 503 kts 98°
2026-05-05 18:33 40.37779 -4.33078 31968 ft 503 kts 99°
2026-05-05 18:34 40.36682 -4.23986 31959 ft 504 kts 102°
2026-05-05 18:34 40.35271 -4.15639 31985 ft 504 kts 104°
2026-05-05 18:35 40.33645 -4.06457 31977 ft 504 kts 105°
2026-05-05 18:35 40.32074 -3.97556 31981 ft 504 kts 105°
2026-05-05 18:36 40.30506 -3.88688 31961 ft 504 kts 104°
2026-05-05 18:36 40.28925 -3.79751 31966 ft 504 kts 104°
2026-05-05 18:37 40.27348 -3.70884 31972 ft 505 kts 104°
2026-05-05 18:37 40.25748 -3.61930 31985 ft 505 kts 105°
2026-05-05 18:38 40.24141 -3.52975 31964 ft 505 kts 105°
2026-05-05 18:38 40.22532 -3.44067 31975 ft 506 kts 105°
2026-05-05 18:39 40.20908 -3.35094 31967 ft 505 kts 105°
2026-05-05 18:39 40.19284 -3.26176 31956 ft 506 kts 106°
2026-05-05 18:40 40.17647 -3.17225 31952 ft 506 kts 106°
2026-05-05 18:40 40.15999 -3.08272 31952 ft 506 kts 106°
2026-05-05 18:41 40.14348 -2.99329 31960 ft 506 kts 106°
2026-05-05 18:41 40.12683 -2.90358 31954 ft 507 kts 106°
2026-05-05 18:42 40.11031 -2.81491 31967 ft 506 kts 107°
2026-05-05 18:42 40.09356 -2.72547 31965 ft 506 kts 107°
2026-05-05 18:43 40.07680 -2.63644 31964 ft 506 kts 107°
2026-05-05 18:43 40.05998 -2.54735 31958 ft 506 kts 107°
2026-05-05 18:44 40.04310 -2.45847 31967 ft 505 kts 107°
2026-05-05 18:44 40.02631 -2.37035 31960 ft 505 kts 107°
2026-05-05 18:45 40.00941 -2.28200 31961 ft 505 kts 108°
2026-05-05 18:45 39.99245 -2.19386 31959 ft 505 kts 108°
2026-05-05 18:46 39.97306 -2.10595 31956 ft 503 kts 111°
2026-05-05 18:46 39.95268 -2.01887 31957 ft 503 kts 111°
2026-05-05 18:47 39.93231 -1.93194 31954 ft 503 kts 111°
2026-05-05 18:47 39.91197 -1.84510 31958 ft 503 kts 111°
2026-05-05 18:48 39.89165 -1.75848 31957 ft 503 kts 111°
2026-05-05 18:48 39.87111 -1.67128 31960 ft 502 kts 111°
2026-05-05 18:49 39.85107 -1.58654 31961 ft 503 kts 111°
2026-05-05 18:49 39.83065 -1.50042 31957 ft 502 kts 111°
2026-05-05 18:50 39.81004 -1.41405 31959 ft 502 kts 111°
2026-05-05 18:50 39.78354 -1.33494 31948 ft 487 kts 129°
2026-05-05 18:51 39.76320 -1.29975 31958 ft 476 kts 140°
2026-05-05 18:51 39.74059 -1.27136 31959 ft 466 kts 149°
2026-05-05 18:51 39.68636 -1.22868 31964 ft 448 kts 165°
2026-05-05 18:52 39.62883 -1.19606 31960 ft 451 kts 165°
2026-05-05 18:52 39.57435 -1.15289 31952 ft 466 kts 151°
2026-05-05 18:53 39.52736 -1.09320 31960 ft 481 kts 137°
2026-05-05 18:53 39.49068 -1.02008 31969 ft 489 kts 126°
2026-05-05 18:54 39.45820 -0.94328 31962 ft 489 kts 126°
2026-05-05 18:54 39.42540 -0.86766 31952 ft 487 kts 126°
2026-05-05 18:55 39.39170 -0.79106 31941 ft 487 kts 126°
2026-05-05 18:55 39.35794 -0.71484 31932 ft 487 kts 127°
2026-05-05 18:56 39.32460 -0.63930 31919 ft 488 kts 125°
2026-05-05 18:56 39.29845 -0.55682 31909 ft 499 kts 111°
2026-05-05 18:57 39.28710 -0.46847 31899 ft 506 kts 96°
2026-05-05 18:57 39.28970 -0.37674 31896 ft 509 kts 87°
2026-05-05 18:58 39.29553 -0.28617 31888 ft 507 kts 88°
2026-05-05 18:58 39.30077 -0.19487 31886 ft 507 kts 89°
2026-05-05 18:59 39.30551 -0.10440 31883 ft 507 kts 89°
2026-05-05 18:59 39.31011 -0.01335 31885 ft 507 kts 89°
2026-05-05 19:00 39.31460 0.07720 31881 ft 507 kts 89°
2026-05-05 19:00 39.31905 0.16792 31881 ft 507 kts 89°
2026-05-05 19:01 39.32344 0.25871 31883 ft 507 kts 89°
2026-05-05 19:01 39.32774 0.34886 31876 ft 507 kts 89°
2026-05-05 19:02 39.32984 0.39411 31395 ft 507 kts 89°
2026-05-05 19:02 39.33191 0.43921 30691 ft 507 kts 89°
2026-05-05 19:02 39.33400 0.48461 29928 ft 507 kts 89°
2026-05-05 19:02 39.33605 0.53008 29144 ft 508 kts 89°
2026-05-05 19:03 39.33808 0.57546 28328 ft 509 kts 89°
2026-05-05 19:03 39.34013 0.62131 27501 ft 509 kts 89°
2026-05-05 19:03 39.34212 0.66653 26872 ft 504 kts 90°
2026-05-05 19:03 39.34407 0.71119 26246 ft 500 kts 89°
2026-05-05 19:04 39.34602 0.75594 25601 ft 495 kts 89°
2026-05-05 19:04 39.34793 0.79988 24992 ft 490 kts 90°
2026-05-05 19:04 39.34980 0.84332 24452 ft 484 kts 89°
2026-05-05 19:04 39.35162 0.88664 23900 ft 478 kts 89°
2026-05-05 19:05 39.35341 0.92857 23380 ft 472 kts 89°
2026-05-05 19:05 39.35516 0.97088 22871 ft 466 kts 89°
2026-05-05 19:05 39.35686 1.01246 22362 ft 461 kts 89°
2026-05-05 19:05 39.35855 1.05356 21860 ft 456 kts 89°
2026-05-05 19:06 39.36021 1.09416 21353 ft 452 kts 89°
2026-05-05 19:06 39.36181 1.13393 20856 ft 447 kts 90°
2026-05-05 19:06 39.36340 1.17389 20362 ft 443 kts 89°
2026-05-05 19:06 39.36497 1.21325 19869 ft 439 kts 90°
2026-05-05 19:07 39.36649 1.25222 19362 ft 435 kts 90°
2026-05-05 19:07 39.36801 1.29143 18856 ft 432 kts 90°
2026-05-05 19:07 39.36947 1.32953 18366 ft 428 kts 90°
2026-05-05 19:07 39.37091 1.36762 17861 ft 425 kts 90°
2026-05-05 19:08 39.37280 1.40566 17357 ft 423 kts 86°
2026-05-05 19:08 39.37660 1.44348 16867 ft 420 kts 83°
2026-05-05 19:08 39.38133 1.48016 16398 ft 416 kts 82°
2026-05-05 19:08 39.38627 1.51672 15917 ft 413 kts 81°
2026-05-05 19:09 39.39122 1.55331 15443 ft 409 kts 81°
2026-05-05 19:09 39.39600 1.58905 14978 ft 406 kts 81°
2026-05-05 19:09 39.40076 1.62486 14504 ft 402 kts 82°
2026-05-05 19:09 39.40543 1.66042 14021 ft 399 kts 82°
2026-05-05 19:10 39.41003 1.69571 13546 ft 394 kts 82°
2026-05-05 19:10 39.41450 1.73002 13072 ft 390 kts 82°
2026-05-05 19:10 39.41896 1.76452 12587 ft 387 kts 82°
2026-05-05 19:10 39.42337 1.79864 12103 ft 383 kts 82°
2026-05-05 19:11 39.42767 1.83201 11624 ft 379 kts 82°
2026-05-05 19:11 39.43197 1.86534 11202 ft 373 kts 81°
2026-05-05 19:11 39.43616 1.89790 10867 ft 363 kts 81°
2026-05-05 19:11 39.44026 1.92985 10487 ft 356 kts 81°
2026-05-05 19:12 39.44426 1.96110 10187 ft 347 kts 81°
2026-05-05 19:12 39.44816 1.99172 10031 ft 347 kts 81°
2026-05-05 19:12 39.45256 2.02243 9900 ft 346 kts 77°
2026-05-05 19:12 39.45909 2.05227 9896 ft 347 kts 72°
2026-05-05 19:13 39.46676 2.08183 9895 ft 347 kts 71°
2026-05-05 19:13 39.47456 2.11097 9888 ft 337 kts 70°
2026-05-05 19:13 39.48204 2.13885 9881 ft 322 kts 71°
2026-05-05 19:13 39.48917 2.16563 9876 ft 305 kts 71°
2026-05-05 19:14 39.49578 2.19062 9874 ft 289 kts 71°
2026-05-05 19:14 39.50209 2.21456 9871 ft 273 kts 71°
2026-05-05 19:14 39.50809 2.23741 9879 ft 268 kts 71°
2026-05-05 19:14 39.51404 2.26014 9883 ft 267 kts 71°
2026-05-05 19:15 39.52008 2.28321 9883 ft 267 kts 71°
2026-05-05 19:15 39.52601 2.30592 9885 ft 267 kts 71°
2026-05-05 19:15 39.53194 2.32862 9890 ft 267 kts 71°
2026-05-05 19:15 39.53788 2.35143 9887 ft 267 kts 71°
2026-05-05 19:16 39.54382 2.37412 9893 ft 267 kts 70°
2026-05-05 19:16 39.55106 2.39643 9893 ft 268 kts 62°
2026-05-05 19:16 39.56039 2.41749 9894 ft 268 kts 59°
2026-05-05 19:16 39.56871 2.43878 9846 ft 264 kts 65°
2026-05-05 19:17 39.57605 2.46057 9512 ft 264 kts 66°
2026-05-05 19:17 39.58318 2.48237 9202 ft 264 kts 66°
2026-05-05 19:17 39.59033 2.50440 8854 ft 262 kts 67°
2026-05-05 19:17 39.59735 2.52607 8566 ft 260 kts 66°
2026-05-05 19:18 39.60424 2.54740 8282 ft 259 kts 67°
2026-05-05 19:18 39.61121 2.56901 7984 ft 257 kts 66°
2026-05-05 19:18 39.61807 2.59035 7688 ft 256 kts 66°
2026-05-05 19:18 39.62481 2.61149 7415 ft 254 kts 66°
2026-05-05 19:19 39.63151 2.63265 7134 ft 252 kts 66°
2026-05-05 19:19 39.63808 2.65344 6846 ft 250 kts 67°
2026-05-05 19:19 39.64463 2.67424 6563 ft 249 kts 67°
2026-05-05 19:19 39.65118 2.69510 6279 ft 247 kts 67°
2026-05-05 19:20 39.65758 2.71550 6006 ft 245 kts 67°
2026-05-05 19:20 39.66401 2.73599 5929 ft 244 kts 67°
2026-05-05 19:20 39.67040 2.75636 5928 ft 245 kts 67°
2026-05-05 19:20 39.67690 2.77706 5926 ft 245 kts 67°
2026-05-05 19:21 39.68327 2.79735 5924 ft 245 kts 67°
2026-05-05 19:21 39.68972 2.81791 5923 ft 245 kts 67°
2026-05-05 19:21 39.69620 2.83850 5923 ft 245 kts 67°
2026-05-05 19:21 39.70259 2.85882 5921 ft 244 kts 67°
2026-05-05 19:22 39.70904 2.87929 5913 ft 241 kts 66°
2026-05-05 19:22 39.71656 2.89785 5905 ft 229 kts 56°
2026-05-05 19:22 39.72564 2.91491 5910 ft 228 kts 53°
2026-05-05 19:22 39.73502 2.93170 5925 ft 228 kts 52°
2026-05-05 19:23 39.74433 2.94822 5930 ft 228 kts 52°
2026-05-05 19:23 39.75379 2.96496 5915 ft 228 kts 52°
2026-05-05 19:23 39.76313 2.98148 5904 ft 228 kts 52°
2026-05-05 19:23 39.77250 2.99805 5895 ft 228 kts 52°
2026-05-05 19:24 39.77991 3.01638 5875 ft 229 kts 79°
2026-05-05 19:24 39.77900 3.03669 5883 ft 225 kts 114°
2026-05-05 19:24 39.77008 3.05270 5903 ft 220 kts 143°
2026-05-05 19:24 39.75773 3.06432 5909 ft 218 kts 150°
2026-05-05 19:25 39.74483 3.07493 5900 ft 218 kts 152°
2026-05-05 19:25 39.73181 3.08535 5895 ft 218 kts 152°
2026-05-05 19:25 39.71830 3.09314 5875 ft 211 kts 176°
2026-05-05 19:25 39.70449 3.09041 5937 ft 190 kts 210°
2026-05-05 19:26 39.69575 3.07930 5922 ft 166 kts 237°
2026-05-05 19:26 39.69009 3.06723 5794 ft 153 kts 241°
2026-05-05 19:26 39.68469 3.05475 5342 ft 161 kts 242°
2026-05-05 19:26 39.67927 3.04195 4884 ft 168 kts 242°
2026-05-05 19:27 39.67346 3.02811 4382 ft 176 kts 242°
2026-05-05 19:27 39.66775 3.01440 4144 ft 168 kts 242°
2026-05-05 19:27 39.66241 3.00158 3964 ft 157 kts 242°
2026-05-05 19:27 39.65736 2.98949 3787 ft 146 kts 242°
2026-05-05 19:28 39.65263 2.97814 3622 ft 142 kts 242°
2026-05-05 19:28 39.64790 2.96671 3468 ft 142 kts 242°
2026-05-05 19:28 39.64323 2.95541 3313 ft 142 kts 242°
2026-05-05 19:28 39.63860 2.94418 3165 ft 142 kts 242°
2026-05-05 19:29 39.63397 2.93274 3019 ft 142 kts 244°
2026-05-05 19:29 39.62964 2.92114 2889 ft 142 kts 244°
2026-05-05 19:29 39.62501 2.90970 2765 ft 142 kts 242°
2026-05-05 19:29 39.62019 2.89870 2675 ft 140 kts 240°
2026-05-05 19:30 39.61524 2.88793 2545 ft 136 kts 239°
2026-05-05 19:30 39.61038 2.87758 2422 ft 135 kts 239°
2026-05-05 19:30 39.60542 2.86713 2297 ft 135 kts 239°
2026-05-05 19:30 39.60047 2.85672 2175 ft 135 kts 239°
2026-05-05 19:31 39.59549 2.84625 2050 ft 134 kts 239°
2026-05-05 19:31 39.59059 2.83594 1925 ft 134 kts 239°
2026-05-05 19:31 39.58563 2.82549 1800 ft 134 kts 239°
2026-05-05 19:31 39.58065 2.81511 1504 ft 135 kts 238°
2026-05-05 19:32 39.57570 2.80486 1102 ft 134 kts 239°
2026-05-05 19:32 39.57088 2.79469 704 ft 131 kts 239°
2026-05-05 19:32 39.56626 2.78460 455 ft 130 kts 238°
2026-05-05 19:32 39.56147 2.77435 282 ft 130 kts 238°
2026-05-05 19:33 39.55679 2.76452 109 ft 128 kts 237°
2026-05-05 19:33 39.55212 2.75474 18 ft 116 kts 238°
2026-05-05 19:33 39.54880 2.74770 26 ft 66 kts 239°
2026-05-05 19:33 39.54729 2.74452 30 ft 18 kts 239°
2026-05-05 19:34 39.54663 2.74312 33 ft 17 kts 239°
2026-05-05 19:34 39.54602 2.74175 36 ft 18 kts 242°
2026-05-05 19:34 39.54556 2.74013 37 ft 21 kts 259°
2026-05-05 19:35 39.54548 2.73760 39 ft 0 kts 271°
2026-05-05 19:35 39.54548 2.73750 39 ft 2 kts 271°
2026-05-05 19:35 39.54548 2.73746 39 ft 0 kts 271°
2026-05-05 19:36 39.54550 2.73716 39 ft 7 kts 281°
2026-05-05 19:37 39.54572 2.73679 39 ft 0 kts 329°
2026-05-05 19:37 39.54575 2.73678 39 ft 2 kts 337°
2026-05-05 19:37 39.54604 2.73720 39 ft 11 kts 60°
2026-05-05 19:37 39.54655 2.73845 39 ft 17 kts 61°
2026-05-05 19:38 39.54718 2.73985 39 ft 18 kts 58°
2026-05-05 19:38 39.54795 2.74120 37 ft 19 kts 27°
2026-05-05 19:38 39.54908 2.74063 40 ft 17 kts 328°
2026-05-05 19:38 39.55004 2.73985 43 ft 15 kts 328°
2026-05-05 19:39 39.55098 2.73911 43 ft 15 kts 329°
2026-05-05 19:39 39.55194 2.73835 42 ft 16 kts 328°
2026-05-05 19:39 39.55302 2.73749 39 ft 19 kts 329°
2026-05-05 19:39 39.55426 2.73651 33 ft 22 kts 328°
2026-05-05 19:40 39.55570 2.73538 27 ft 25 kts 328°
2026-05-05 19:40 39.55608 2.73404 23 ft 17 kts 238°
2026-05-05 19:40 39.55542 2.73268 23 ft 17 kts 238°
2026-05-05 19:40 39.55472 2.73118 20 ft 20 kts 238°
2026-05-05 19:41 39.55396 2.72960 17 ft 21 kts 238°
2026-05-05 19:41 39.55318 2.72794 16 ft 21 kts 238°
2026-05-05 19:41 39.55235 2.72622 12 ft 22 kts 238°
2026-05-05 19:41 39.55151 2.72449 12 ft 22 kts 239°
2026-05-05 19:42 39.55078 2.72286 16 ft 19 kts 238°
2026-05-05 19:42 39.55009 2.72142 17 ft 18 kts 238°
2026-05-05 19:42 39.54945 2.72007 20 ft 16 kts 238°
2026-05-05 19:42 39.54881 2.71875 19 ft 17 kts 238°
2026-05-05 19:43 39.54817 2.71739 19 ft 18 kts 239°
2026-05-05 19:43 39.54743 2.71579 16 ft 22 kts 239°
2026-05-05 19:43 39.54668 2.71466 16 ft 12 kts 177°
2026-05-05 19:43 39.54659 2.71470 16 ft 0 kts 155°
2026-05-05 19:44 39.54641 2.71486 16 ft 7 kts 128°
2026-05-05 19:44 39.54642 2.71548 16 ft 4 kts 74°
2026-05-05 19:44 39.54626 2.71581 16 ft 5 kts 144°
2026-05-05 19:44 39.54596 2.71606 16 ft 3 kts 149°
2026-05-05 19:45 39.54592 2.71610 16 ft 0 kts 149°